Weather History for Cushing, OK

Change the Weather History Date:

Thursday, May 23, 2013

  Actual Average Record
Temperature  
Mean Temperature 60 °F -  
Max Temperature 66 °F 80 °F 93 °F (1956)
Min Temperature 55 °F 59 °F 45 °F (1963)
Degree Days  
Heating Degree Days 4    
Growing Degree Days 10 (Base 50)    
Moisture  
Dew Point 58 °F    
Average Humidity 98    
Maximum Humidity 100    
Minimum Humidity 83    
Precipitation  
Precipitation 0.25 in - - ()
Sea Level Pressure  
Sea Level Pressure 30.06 in    
Wind  
Wind Speed 3 mph (NE)    
Max Wind Speed 13 mph    
Max Gust Speed 20 mph    
Visibility 10 miles    
Events Rain    
Averages and records for this station are not official NWS values.
T = Trace of Precipitation, MM = Missing Value Source: NWS Daily Summary

Daily Weather History Graph

Daily Weather History Graph

Search for Another Location

Airport:

Trip Planner

Search our weather history database for the weather conditions in past years. The results will help you decide how hot, cold, wet, or windy it might be!

Date:

Astronomy

May. 23, 2013 Rise Set
Actual Time 6:15 AM CDT 8:32 PM CDT
Civil Twilight 5:46 AM CDT 9:01 PM CDT
Nautical Twilight 5:11 AM CDT 9:37 PM CDT
Astronomical Twilight 4:32 AM CDT 10:16 PM CDT
Moon 7:08 PM CDT (5/23) 4:58 AM CDT (5/23)
Length of Visible Light 15h 14m
Length of Day
14h 16m
Waxing Gibbous, 97% of the Moon is Illuminated
May 23
Waxing Gibbous
May 24
Full
May 31
Last Quarter
Jun 8
New
Jun 16
First Quarter

Hourly Weather History & Observations

Time (CDT) Temp. Dew Point Humidity Pressure Visibility Wind Dir Wind Speed Gust Speed Precip Events Conditions
12:15 AM 60.8 °F 59.0 °F 94% 29.93 in 10.0 mi Calm Calm - N/A   Clear
12:35 AM 59.0 °F 57.2 °F 94% 29.93 in 10.0 mi Calm Calm - N/A   Clear
12:55 AM 59.0 °F 59.0 °F 100% 29.93 in 10.0 mi Calm Calm - N/A   Clear
1:15 AM 59.0 °F 59.0 °F 100% 29.94 in 10.0 mi Calm Calm - N/A   Clear
1:35 AM 59.0 °F 59.0 °F 100% 29.93 in 10.0 mi Calm Calm - N/A   Clear
1:55 AM 57.2 °F 57.2 °F 100% 29.93 in 10.0 mi Calm Calm - N/A   Clear
2:15 AM 57.2 °F 57.2 °F 100% 29.94 in 10.0 mi Calm Calm - N/A   Clear
2:35 AM 59.0 °F 57.2 °F 94% 29.94 in 10.0 mi Calm Calm - N/A   Clear
2:55 AM 55.4 °F 55.4 °F 100% 29.94 in 10.0 mi Calm Calm - N/A   Clear
3:15 AM 55.4 °F 55.4 °F 100% 29.95 in 10.0 mi Calm Calm - N/A   Clear
3:35 AM 55.4 °F 55.4 °F 100% 29.96 in 10.0 mi Calm Calm - N/A   Clear
3:55 AM 57.2 °F 57.2 °F 100% 29.96 in 10.0 mi Calm Calm - N/A   Clear
4:15 AM 57.2 °F 57.2 °F 100% 29.97 in 10.0 mi Calm Calm - N/A   Clear
4:35 AM 57.2 °F 57.2 °F 100% 29.98 in 10.0 mi Calm Calm - N/A   Clear
4:55 AM 57.2 °F 57.2 °F 100% 29.98 in 10.0 mi Calm Calm - N/A   Clear
5:15 AM 57.2 °F 55.4 °F 94% 30.00 in 10.0 mi Calm Calm - N/A   Clear
5:35 AM 59.0 °F 59.0 °F 100% 30.01 in 10.0 mi Calm Calm - N/A   Clear
5:55 AM 59.0 °F 59.0 °F 100% 30.00 in 10.0 mi Calm Calm - N/A   Clear
6:15 AM 59.0 °F 59.0 °F 100% 29.99 in 10.0 mi NE 3.5 mph - N/A   Clear
6:35 AM 59.0 °F 59.0 °F 100% 29.98 in 10.0 mi NE 4.6 mph - N/A   Clear
6:55 AM 60.8 °F 60.8 °F 100% 29.98 in 10.0 mi NE 5.8 mph - N/A   Clear
7:15 AM 60.8 °F 60.8 °F 100% 30.00 in 10.0 mi NE 5.8 mph - N/A   Clear
7:35 AM 60.8 °F 60.8 °F 100% 30.01 in 10.0 mi NE 4.6 mph - N/A   Clear
7:55 AM 60.8 °F 60.8 °F 100% 30.04 in 10.0 mi Calm Calm - N/A   Clear
8:15 AM 60.8 °F 60.8 °F 100% 30.05 in 10.0 mi NE 3.5 mph - N/A   Clear
8:35 AM 60.8 °F 60.8 °F 100% 30.06 in 10.0 mi ENE 6.9 mph - N/A   Clear
8:55 AM 60.8 °F 59.0 °F 94% 30.04 in 10.0 mi ENE 8.1 mph - N/A Rain Light Rain
9:15 AM 60.8 °F 59.0 °F 94% 30.05 in 10.0 mi NE 5.8 mph - N/A   Clear
9:35 AM 60.8 °F 59.0 °F 94% 30.07 in 10.0 mi ENE 6.9 mph - N/A   Scattered Clouds
9:55 AM 60.8 °F 59.0 °F 94% 30.09 in 10.0 mi NE 10.4 mph - N/A   Overcast
10:15 AM 59.0 °F 59.0 °F 100% 30.07 in 10.0 mi ENE 6.9 mph - N/A Rain Light Rain
10:35 AM 59.0 °F 57.2 °F 94% 30.11 in 7.0 mi NE 6.9 mph - 0.02 in Rain Rain
10:55 AM 59.0 °F 57.2 °F 94% 30.12 in 7.0 mi NE 10.4 mph - 0.06 in Rain Light Rain
11:15 AM 57.2 °F 57.2 °F 100% 30.12 in 10.0 mi ENE 6.9 mph - 0.01 in Rain Light Rain
11:35 AM 57.2 °F 57.2 °F 100% 30.09 in 10.0 mi ENE 9.2 mph - 0.02 in Rain Light Rain
11:55 AM 57.2 °F 57.2 °F 100% 30.14 in 10.0 mi WNW 4.6 mph - 0.02 in Rain Light Rain
12:15 PM 57.2 °F 57.2 °F 100% 30.14 in 10.0 mi NE 3.5 mph - 0.01 in Rain Light Rain
12:35 PM 55.4 °F 55.4 °F 100% 30.14 in 10.0 mi North 3.5 mph - 0.02 in Rain Light Rain
12:55 PM 55.4 °F 55.4 °F 100% 30.13 in 10.0 mi ENE 5.8 mph - 0.03 in Rain Light Rain
1:15 PM 57.2 °F 57.2 °F 100% 30.15 in 10.0 mi Calm Calm - 0.01 in Rain Light Rain
1:35 PM 57.2 °F 57.2 °F 100% 30.14 in 10.0 mi Calm Calm - 0.03 in Rain Light Rain
1:55 PM 57.2 °F 57.2 °F 100% 30.11 in 10.0 mi East 6.9 mph - 0.03 in Rain Light Rain
2:15 PM 57.2 °F 57.2 °F 100% 30.12 in 10.0 mi East 4.6 mph - N/A Rain Light Rain
2:35 PM 57.2 °F 57.2 °F 100% 30.08 in 10.0 mi SE 4.6 mph - 0.01 in Rain Light Rain
2:55 PM 57.2 °F 57.2 °F 100% 30.06 in 10.0 mi ESE 4.6 mph - 0.01 in Rain Light Rain
3:15 PM 57.2 °F 57.2 °F 100% 30.07 in 5.0 mi ENE 8.1 mph 19.6 mph 0.05 in Rain Heavy Rain
3:35 PM 59.0 °F 59.0 °F 100% 30.08 in 10.0 mi NE 11.5 mph - 0.10 in Rain Light Rain
3:55 PM 59.0 °F 59.0 °F 100% 30.08 in 10.0 mi NE 11.5 mph 16.1 mph 0.10 in   Scattered Clouds
4:15 PM 60.8 °F 60.8 °F 100% 30.08 in 10.0 mi ENE 10.4 mph - N/A   Mostly Cloudy
4:35 PM 60.8 °F 60.8 °F 100% 30.12 in 10.0 mi NNE 11.5 mph 17.3 mph N/A   Mostly Cloudy
4:55 PM 62.6 °F 60.8 °F 94% 30.10 in 10.0 mi NE 12.7 mph 17.3 mph N/A   Scattered Clouds
5:15 PM 62.6 °F 60.8 °F 94% 30.07 in 10.0 mi ENE 9.2 mph 16.1 mph N/A   Clear
5:35 PM 64.4 °F 60.8 °F 88% 30.09 in 10.0 mi ENE 5.8 mph - N/A   Clear
5:55 PM 64.4 °F 60.8 °F 88% 30.08 in 10.0 mi ENE 6.9 mph - N/A   Clear
6:15 PM 64.4 °F 60.8 °F 88% 30.08 in 10.0 mi ENE 3.5 mph - N/A   Clear
6:35 PM 66.2 °F 60.8 °F 83% 30.07 in 10.0 mi ENE 3.5 mph - N/A   Clear
6:55 PM 64.4 °F 60.8 °F 88% 30.08 in 10.0 mi North 4.6 mph - N/A   Clear
7:15 PM 62.6 °F 60.8 °F 94% 30.08 in 10.0 mi NNE 3.5 mph - N/A   Clear
7:35 PM 62.6 °F 60.8 °F 94% 30.08 in 10.0 mi NE 3.5 mph - N/A   Clear
7:55 PM 62.6 °F 60.8 °F 94% 30.09 in 10.0 mi NNE 4.6 mph - N/A   Clear
8:15 PM 60.8 °F 60.8 °F 100% 30.10 in 10.0 mi NE 5.8 mph - N/A   Clear
8:35 PM 60.8 °F 60.8 °F 100% 30.10 in 10.0 mi Calm Calm - N/A   Clear
8:55 PM 60.8 °F 59.0 °F 94% 30.10 in 10.0 mi NE 3.5 mph - N/A   Clear
9:15 PM 59.0 °F 59.0 °F 100% 30.11 in 10.0 mi Calm Calm - N/A   Clear
9:35 PM 59.0 °F 59.0 °F 100% 30.12 in 10.0 mi Calm Calm - N/A   Clear
9:55 PM 59.0 °F 59.0 °F 100% 30.11 in 10.0 mi Calm Calm - N/A   Clear
10:15 PM 57.2 °F 57.2 °F 100% 30.13 in 10.0 mi Calm Calm - N/A   Clear
10:35 PM 55.4 °F 55.4 °F 100% 30.13 in 10.0 mi Calm Calm - N/A   Clear
10:55 PM 55.4 °F 55.4 °F 100% 30.14 in 10.0 mi Calm Calm - N/A   Clear
11:15 PM 55.4 °F 55.4 °F 100% 30.14 in 10.0 mi Calm Calm - N/A   Clear
11:35 PM 55.4 °F 55.4 °F 100% 30.15 in 10.0 mi Calm Calm - N/A   Clear
11:55 PM 55.4 °F 55.4 °F 100% 30.15 in 10.0 mi Calm Calm - N/A   Clear